Main page
METAR-TAF:

METAR-TAF

Airports :

Ocala International Airport

Ocala, Florida, United States

latitude: 29-10N, longitude: 082-13W, elevation: 89 ft

Current weather observation

The report was made 57 minutes ago, at 08:51 UTC
Wind 3 mph from the North/Northeast
Temperature 66°F
Humidity 94%
Pressure 29.96 in. Hg
Visibility: 10 miles
Clear sky

METAR: KOCF 240851Z AUTO 03003KT 10SM CLR 19/18 A2996 RMK AO2 SLP145 T01940183 56007

Time: 05:48 (09:48 UTC)


TAF: missing

Weather observations and forecasts of more than 4000 airports (METAR and TAF reports).

The available stations are represented by yellow and red dots on the map.

Hover mouse over dot to see the name of the station.

Then click to see weather observations and forecasts.

To change the map : click on the green buttons with a black cross to zoom in, on the green button with a dash to zoom out, or on the green arrows for adjacent maps.


METAR-TAF: